Weather History for Bemidji, MN

Change the Weather History Date:

Tuesday, September 17, 2013

  Actual Average Record
Temperature  
Mean Temperature 52 °F -  
Max Temperature 61 °F 65 °F 87 °F (1948)
Min Temperature 42 °F 44 °F 23 °F (1959)
Degree Days  
Heating Degree Days 14    
Growing Degree Days 2 (Base 50)    
Moisture  
Dew Point 49 °F    
Average Humidity 83    
Maximum Humidity 95    
Minimum Humidity 74    
Precipitation  
Precipitation 0.00 in - - ()
Sea Level Pressure  
Sea Level Pressure 30.01 in    
Wind  
Wind Speed 10 mph (SSE)    
Max Wind Speed 21 mph    
Max Gust Speed 25 mph    
Visibility 10 miles    
Events      
Averages and records for this station are not official NWS values.
T = Trace of Precipitation, MM = Missing Value Source: NWS Daily Summary

Daily Weather History Graph

Daily Weather History Graph

Search for Another Location

Airport:

Trip Planner

Search our weather history database for the weather conditions in past years. The results will help you decide how hot, cold, wet, or windy it might be!

Date:

Astronomy

Sep. 17, 2013 Rise Set
Actual Time 7:00 AM CDT 7:27 PM CDT
Civil Twilight 6:29 AM CDT 7:57 PM CDT
Nautical Twilight 5:52 AM CDT 8:34 PM CDT
Astronomical Twilight 5:14 AM CDT 9:12 PM CDT
Moon 6:17 PM CDT (9/17) 4:49 AM CDT (9/17)
Length of Visible Light 13h 28m
Length of Day
12h 27m
Waxing Gibbous, 96% of the Moon is Illuminated
Sep 17
Waxing Gibbous
Sep 19
Full
Sep 26
Last Quarter
Oct 4
New
Oct 11
First Quarter

Hourly Weather History & Observations

Time (CDT) Temp. Windchill Dew Point Humidity Pressure Visibility Wind Dir Wind Speed Gust Speed Precip Events Conditions
12:13 AM 47.3 °F - 39.4 °F 74% 30.17 in 10.0 mi SSE 8.1 mph - N/A   Clear
12:32 AM 46.9 °F - 39.6 °F 76% 30.17 in 10.0 mi SSE 8.1 mph - N/A   Clear
12:53 AM 46.6 °F - 40.1 °F 78% 30.17 in 10.0 mi SE 6.9 mph - N/A   Clear
1:13 AM 45.0 °F 41.2 °F 40.1 °F 83% 30.16 in 10.0 mi SE 6.9 mph - N/A   Clear
1:33 AM 46.2 °F 42.2 °F 41.0 °F 82% 30.17 in 10.0 mi SSE 8.1 mph - N/A   Clear
1:53 AM 45.9 °F 42.3 °F 41.0 °F 83% 30.17 in 10.0 mi SSE 6.9 mph - N/A   Clear
2:13 AM 45.7 °F 43.4 °F 41.4 °F 85% 30.16 in 10.0 mi SSE 4.6 mph - N/A   Clear
2:33 AM 44.2 °F 41.8 °F 41.0 °F 88% 30.16 in 10.0 mi SSE 4.6 mph - N/A   Clear
2:52 AM 44.1 °F 41.5 °F 41.0 °F 89% 30.16 in 10.0 mi SE 4.6 mph - N/A   Scattered Clouds
3:13 AM 45.5 °F 42.5 °F 41.9 °F 87% 30.15 in 10.0 mi SSE 5.8 mph - N/A   Scattered Clouds
3:33 AM 44.1 °F 40.8 °F 41.2 °F 90% 30.15 in 10.0 mi SE 5.8 mph - N/A   Clear
3:53 AM 44.2 °F 41.8 °F 41.2 °F 89% 30.14 in 10.0 mi SE 4.6 mph - N/A   Clear
4:13 AM 43.3 °F 40.7 °F 40.6 °F 90% 30.14 in 10.0 mi SE 4.6 mph - N/A   Clear
4:33 AM 43.0 °F 40.3 °F 41.0 °F 93% 30.13 in 10.0 mi SE 4.6 mph - N/A   Clear
4:53 AM 43.3 °F 40.7 °F 41.0 °F 91% 30.13 in 10.0 mi SE 4.6 mph - N/A   Clear
5:13 AM 42.8 °F 38.0 °F 41.0 °F 93% 30.12 in 10.0 mi SE 8.1 mph - N/A   Clear
5:33 AM 43.9 °F 39.9 °F 41.9 °F 93% 30.12 in 10.0 mi SE 6.9 mph - N/A   Clear
5:53 AM 43.9 °F 40.5 °F 41.9 °F 93% 30.11 in 10.0 mi SE 5.8 mph - N/A   Clear
6:13 AM 44.6 °F 40.7 °F 42.6 °F 93% 30.11 in 10.0 mi SSE 6.9 mph - N/A   Clear
6:33 AM 44.2 °F 40.3 °F 42.8 °F 95% 30.10 in 10.0 mi SSE 6.9 mph - N/A   Clear
6:53 AM 45.0 °F 40.6 °F 43.5 °F 95% 30.10 in 10.0 mi SSE 8.1 mph - N/A   Clear
7:13 AM 45.5 °F 40.8 °F 43.9 °F 94% 30.09 in 10.0 mi SSE 9.2 mph - N/A   Clear
7:33 AM 46.4 °F 41.9 °F 44.6 °F 93% 30.09 in 10.0 mi SE 9.2 mph - N/A   Clear
7:53 AM 46.9 °F - 44.8 °F 92% 30.09 in 10.0 mi SE 8.1 mph - N/A   Clear
8:13 AM 47.8 °F - 45.3 °F 91% 30.07 in 10.0 mi SE 8.1 mph - N/A   Clear
8:33 AM 49.3 °F - 46.4 °F 90% 30.07 in 10.0 mi SE 6.9 mph - N/A   Clear
8:52 AM 51.1 °F - 47.5 °F 87% 30.06 in 10.0 mi SSE 9.2 mph - N/A   Clear
9:13 AM 53.2 °F - 48.6 °F 84% 30.06 in 10.0 mi SSE 9.2 mph - N/A   Scattered Clouds
9:33 AM 55.0 °F - 49.3 °F 81% 30.05 in 10.0 mi South 13.8 mph - N/A   Scattered Clouds
9:53 AM 56.8 °F - 49.8 °F 77% 30.05 in 10.0 mi South 12.7 mph 18.4 mph N/A   Scattered Clouds
10:13 AM 57.6 °F - 50.0 °F 76% 30.04 in 10.0 mi South 12.7 mph 21.9 mph N/A   Mostly Cloudy
10:33 AM 58.1 °F - 50.7 °F 76% 30.03 in 10.0 mi South 13.8 mph 25.3 mph N/A   Overcast
10:53 AM 59.0 °F - 51.3 °F 75% 30.03 in 10.0 mi South 16.1 mph 21.9 mph N/A   Overcast
11:13 AM 58.8 °F - 51.3 °F 76% 30.03 in 10.0 mi South 16.1 mph 19.6 mph N/A   Overcast
11:33 AM 57.9 °F - 51.3 °F 78% 30.03 in 10.0 mi South 12.7 mph 24.2 mph N/A   Overcast
11:53 AM 57.9 °F - 51.6 °F 80% 30.02 in 10.0 mi SSE 17.3 mph - N/A   Overcast
12:13 PM 57.9 °F - 51.8 °F 80% 30.02 in 10.0 mi South 10.4 mph - N/A   Overcast
12:33 PM 57.6 °F - 52.0 °F 82% 30.01 in 10.0 mi SSE 15.0 mph 19.6 mph N/A   Overcast
12:53 PM 57.7 °F - 52.2 °F 82% 30.00 in 10.0 mi South 20.7 mph 25.3 mph N/A   Overcast
1:13 PM 58.1 °F - 52.5 °F 82% 30.00 in 10.0 mi South 15.0 mph 24.2 mph N/A   Overcast
1:33 PM 58.8 °F - 53.1 °F 81% 29.99 in 10.0 mi SSE 11.5 mph 15.0 mph N/A   Overcast
1:53 PM 59.0 °F - 53.1 °F 81% 29.98 in 10.0 mi SSE 16.1 mph - N/A   Overcast
2:13 PM 59.0 °F - 52.9 °F 80% 29.98 in 10.0 mi SSE 13.8 mph 23.0 mph N/A   Overcast
2:32 PM 59.2 °F - 52.7 °F 79% 29.97 in 10.0 mi South 16.1 mph 20.7 mph N/A   Overcast
2:53 PM 59.4 °F - 52.7 °F 79% 29.96 in 10.0 mi South 13.8 mph - N/A   Overcast
3:13 PM 59.9 °F - 52.9 °F 78% 29.95 in 10.0 mi SSE 10.4 mph 18.4 mph N/A   Overcast
3:33 PM 60.6 °F - 53.4 °F 77% 29.94 in 10.0 mi SSE 11.5 mph - N/A   Overcast
3:53 PM 60.8 °F - 53.4 °F 77% 29.93 in 10.0 mi SSE 13.8 mph 19.6 mph N/A   Overcast
4:13 PM 61.0 °F - 53.6 °F 77% 29.93 in 10.0 mi SSE 15.0 mph 21.9 mph N/A   Overcast
4:32 PM 60.8 °F - 53.4 °F 77% 29.92 in 10.0 mi SSE 13.8 mph 17.3 mph N/A   Overcast
4:53 PM 60.4 °F - 53.2 °F 77% 29.92 in 10.0 mi SSE 12.7 mph 18.4 mph N/A   Overcast
5:13 PM 60.3 °F - 53.2 °F 78% 29.92 in 10.0 mi South 15.0 mph 20.7 mph N/A   Overcast
5:33 PM 60.1 °F - 53.4 °F 79% 29.91 in 10.0 mi SSE 17.3 mph 23.0 mph N/A   Overcast
5:53 PM 60.1 °F - 53.4 °F 79% 29.90 in 10.0 mi SSE 16.1 mph 20.7 mph N/A   Overcast
6:13 PM 60.1 °F - 53.6 °F 79% 29.90 in 10.0 mi SSE 11.5 mph 18.4 mph N/A   Overcast
6:33 PM 60.1 °F - 53.6 °F 79% 29.90 in 10.0 mi SSE 12.7 mph 23.0 mph N/A   Overcast
6:53 PM 59.9 °F - 53.6 °F 80% 29.89 in 10.0 mi SSE 15.0 mph 18.4 mph N/A   Overcast
7:13 PM 59.9 °F - 53.8 °F 80% 29.89 in 10.0 mi South 12.7 mph 18.4 mph N/A   Overcast
7:32 PM 59.9 °F - 54.1 °F 81% 29.89 in 10.0 mi South 12.7 mph 16.1 mph N/A   Overcast
7:53 PM 59.5 °F - 54.5 °F 83% 29.89 in 10.0 mi South 13.8 mph 19.6 mph N/A   Overcast
8:13 PM 59.4 °F - 54.5 °F 84% 29.89 in 10.0 mi SSE 16.1 mph 20.7 mph N/A   Overcast
8:33 PM 59.4 °F - 54.5 °F 84% 29.89 in 10.0 mi South 15.0 mph 21.9 mph N/A   Overcast
8:53 PM 59.2 °F - 54.5 °F 84% 29.89 in 10.0 mi SSE 12.7 mph 17.3 mph N/A   Overcast
9:13 PM 59.0 °F - 53.8 °F 83% 29.88 in 10.0 mi SSE 13.8 mph 21.9 mph N/A   Overcast
9:32 PM 59.0 °F - 53.8 °F 83% 29.88 in 10.0 mi South 11.5 mph - N/A   Overcast
9:53 PM 58.6 °F - 53.6 °F 83% 29.88 in 10.0 mi South 11.5 mph - N/A   Overcast
10:13 PM 58.6 °F - 53.4 °F 83% 29.88 in 10.0 mi South 13.8 mph - N/A   Overcast
10:33 PM 58.5 °F - 53.2 °F 83% 29.88 in 10.0 mi South 12.7 mph 18.4 mph N/A   Overcast
10:53 PM 58.5 °F - 53.2 °F 83% 29.88 in 10.0 mi South 12.7 mph - N/A   Overcast
11:13 PM 58.3 °F - 53.2 °F 83% 29.87 in 10.0 mi South 12.7 mph - N/A   Overcast
11:33 PM 58.3 °F - 53.2 °F 83% 29.87 in 10.0 mi South 10.4 mph - N/A   Overcast
11:53 PM 58.1 °F - 53.4 °F 84% 29.88 in 10.0 mi South 11.5 mph 16.1 mph N/A   Overcast